Deelen, Netherlands

4:07 AM CEST on April 25, 2018 (GMT +0200)
Deelen Air Base

Weather History for EHDL - February, 2013

Change the Weather History Date:

Sunday, February 3, 2013

  Actual Average Record
Temperature  
Mean Temperature 38 °F -  
Max Temperature 42 °F 43 °F 59 °F (2004)
Min Temperature 33 °F 33 °F -2 °F (2012)
Degree Days  
Heating Degree Days 28    
Moisture  
Dew Point 35 °F    
Average Humidity 90    
Maximum Humidity 100    
Minimum Humidity 70    
Precipitation  
Precipitation 0.00 in - - ()
Sea Level Pressure  
Sea Level Pressure 29.94 in    
Wind  
Wind Speed 10 mph ()    
Max Wind Speed 22 mph    
Max Gust Speed 31 mph    
Visibility 5.6 miles    
Events Rain    
Averages and records for this station are not official NWS values.
T = Trace of Precipitation, MM = Missing Value Source: Averaged Metar Reports

Daily Weather History Graph

Daily Weather History Graph

Search for Another Location

Airport or City:

Astronomy

Feb. 03, 2013 Rise Set
Actual Time 8:13 AM CET 5:28 PM CET
Civil Twilight 7:36 AM CET 6:04 PM CET
Nautical Twilight 6:56 AM CET 6:45 PM CET
Astronomical Twilight 6:16 AM CET 7:24 PM CET
Moon 1:22 AM CET (2/3) 10:51 AM CET (2/3)
Length of Visible Light 10h 27m
Length of Day
9h 14m
Waning Gibbous, 51% of the Moon is Illuminated
Feb 3
Waning Gibbous
Feb 3
Last Quarter
Feb 10
New
Feb 17
First Quarter
Feb 25
Full

Hourly Weather History & Observations

Time (CET) Temp. Windchill Dew Point Humidity Pressure Visibility Wind Dir Wind Speed Gust Speed Precip Events Conditions
12:25 AM 35.6 °F 29.2 °F 33.8 °F 93% 30.01 in 6.2 mi NW 8.1 mph - N/A   Scattered Clouds
12:55 AM 37.4 °F 31.4 °F 33.8 °F 87% 30.01 in 6.2 mi NW 8.1 mph - N/A   Mostly Cloudy
1:25 AM 35.6 °F 30.7 °F 32.0 °F 87% 30.01 in 6.2 mi WNW 5.8 mph - N/A   Partly Cloudy
1:55 AM 35.6 °F 30.7 °F 33.8 °F 93% 30.04 in 6.2 mi WNW 5.8 mph - N/A   Mostly Cloudy
2:25 AM 35.6 °F 30.7 °F 33.8 °F 93% 30.04 in 6.2 mi WNW 5.8 mph - N/A   Light Drizzle
2:55 AM 35.6 °F 29.2 °F 33.8 °F 93% 30.06 in 6.2 mi WNW 8.1 mph - N/A   Mostly Cloudy
3:25 AM 37.4 °F 31.4 °F 33.8 °F 87% 30.06 in 6.2 mi NW 8.1 mph - N/A   Overcast
3:55 AM 35.6 °F 29.9 °F 32.0 °F 87% 30.06 in 6.2 mi West 6.9 mph - N/A   Overcast
4:25 AM 35.6 °F 30.7 °F 33.8 °F 93% 30.06 in 6.2 mi West 5.8 mph - N/A   Mostly Cloudy
4:55 AM 35.6 °F 30.7 °F 32.0 °F 87% 30.06 in 6.2 mi West 5.8 mph - N/A   Mostly Cloudy
5:25 AM 35.6 °F 29.9 °F 33.8 °F 93% 30.06 in 6.2 mi West 6.9 mph - N/A   Mostly Cloudy
5:55 AM 35.6 °F 30.7 °F 32.0 °F 87% 30.06 in 6.2 mi West 5.8 mph - N/A   Overcast
6:25 AM 33.8 °F 28.6 °F 32.0 °F 93% 30.06 in 6.2 mi West 5.8 mph - N/A   Mostly Cloudy
6:55 AM 33.8 °F 28.6 °F 32.0 °F 93% 30.06 in 6.2 mi WSW 5.8 mph - N/A   Overcast
7:25 AM 35.6 °F 29.9 °F 32.0 °F 87% 30.04 in 6.2 mi WSW 6.9 mph - N/A   Overcast
7:55 AM 33.8 °F 27.7 °F 32.0 °F 93% 30.04 in 6.2 mi SW 6.9 mph - N/A   Mostly Cloudy
8:25 AM 33.8 °F 27.7 °F 32.0 °F 93% 30.04 in 6.2 mi WSW 6.9 mph - N/A   Overcast
8:55 AM 33.8 °F 27.7 °F 32.0 °F 93% 30.04 in 6.2 mi WSW 6.9 mph - N/A   Overcast
9:25 AM 35.6 °F 28.0 °F 32.0 °F 87% 30.04 in 6.2 mi WSW 10.4 mph - N/A   Overcast
9:55 AM 37.4 °F 29.8 °F 33.8 °F 87% 30.04 in 6.2 mi WSW 11.5 mph - N/A   Mostly Cloudy
10:25 AM 37.4 °F 29.8 °F 33.8 °F 87% 30.01 in 6.2 mi WSW 11.5 mph - N/A   Scattered Clouds
10:55 AM 39.2 °F 30.8 °F 35.6 °F 87% 29.98 in 6.2 mi SW 15.0 mph - N/A   Mostly Cloudy
11:25 AM 39.2 °F 30.8 °F 33.8 °F 81% 30.01 in 6.2 mi WSW 15.0 mph - N/A   Mostly Cloudy
11:55 AM 39.2 °F 30.5 °F 32.0 °F 75% 30.01 in 6.2 mi WSW 16.1 mph - N/A   Mostly Cloudy
12:25 PM 39.2 °F 29.3 °F 30.2 °F 70% 29.98 in 6.2 mi WSW 20.7 mph - N/A   Overcast
12:55 PM 39.2 °F 30.2 °F 32.0 °F 75% 29.98 in 6.2 mi WSW 17.3 mph - N/A   Overcast
1:25 PM 39.2 °F 29.6 °F 30.2 °F 70% 29.95 in 6.2 mi WSW 19.6 mph - N/A   Overcast
1:55 PM 39.2 °F 29.6 °F 30.2 °F 70% 29.92 in 6.2 mi SW 19.6 mph - N/A   Overcast
2:25 PM 39.2 °F 29.8 °F 30.2 °F 70% 29.89 in 6.2 mi SW 18.4 mph - N/A   Overcast
2:55 PM 39.2 °F 29.0 °F 32.0 °F 75% 29.86 in 6.2 mi SW 21.9 mph - N/A   Overcast
3:25 PM 37.4 °F 27.2 °F 33.8 °F 87% 29.86 in - SW 19.6 mph 31.1 mph N/A   Drizzle
3:55 PM 37.4 °F 27.5 °F 35.6 °F 93% 29.83 in 2.2 mi SW 18.4 mph - N/A   Mostly Cloudy
4:25 PM 37.4 °F 27.5 °F 37.4 °F 100% 29.83 in 1.7 mi WSW 18.4 mph 29.9 mph N/A Rain Light Rain
4:55 PM 39.2 °F 29.6 °F 37.4 °F 93% 29.83 in - WSW 19.6 mph - N/A   Drizzle
5:25 PM 39.2 °F 30.2 °F 37.4 °F 93% 29.83 in - WSW 17.3 mph - N/A   Drizzle
5:55 PM 39.2 °F 30.5 °F 39.2 °F 100% 29.83 in 3.1 mi WSW 16.1 mph - N/A Rain Light Rain
6:25 PM 41.0 °F 33.1 °F 39.2 °F 93% 29.80 in 3.1 mi WSW 15.0 mph - N/A   Drizzle
6:55 PM 41.0 °F 33.1 °F 41.0 °F 100% 29.83 in 6.2 mi WSW 15.0 mph - N/A   Light Drizzle
7:25 PM 42.8 °F 35.8 °F 41.0 °F 93% 29.83 in 4.3 mi West 13.8 mph - N/A Rain Rain
7:55 PM 42.8 °F 35.8 °F 41.0 °F 93% 29.83 in 5.0 mi West 13.8 mph - N/A Rain Light Rain
8:25 PM 42.8 °F 36.2 °F 41.0 °F 93% 29.80 in 6.2 mi West 12.7 mph - N/A Rain Light Rain Showers
8:55 PM 42.8 °F 36.6 °F 42.8 °F 100% 29.80 in 6.2 mi West 11.5 mph - N/A   Light Drizzle
9:25 PM 42.8 °F 36.6 °F 42.8 °F 100% 29.80 in 5.0 mi West 11.5 mph - N/A Rain Light Rain
9:55 PM 42.8 °F 36.2 °F 42.8 °F 100% 29.80 in 5.0 mi West 12.7 mph - N/A Rain Light Rain
10:25 PM 42.8 °F 36.2 °F 42.8 °F 100% 29.80 in 3.1 mi WSW 12.7 mph - N/A Rain Light Rain
10:55 PM 42.8 °F 37.5 °F 42.8 °F 100% 29.80 in 4.3 mi West 9.2 mph - N/A   Light Drizzle
11:25 PM 42.8 °F 37.5 °F 42.8 °F 100% 29.80 in 4.3 mi WSW 9.2 mph - N/A   Light Drizzle
11:55 PM 42.8 °F 36.6 °F 42.8 °F 100% 29.80 in 5.0 mi WSW 11.5 mph - N/A   Mostly Cloudy